| time (UTC) | temp F | wind direction | speed knots | gust knots | rain 1hr in | rain 24hr in | rain mn in | humidity % | barometer mb |
| 20260505092516 | 50 | 90 | 1.7 | 2.6 | 0.01 | 0.12 | 0.03 | 72 | 1010.6 |
| 20260505091515 | 50 | 135 | 2.6 | 4.3 | 0.01 | 0.12 | 0.03 | 72 | 1010.5 |
| 20260505090515 | 50 | 158 | 3.5 | 5.2 | 0.01 | 0.12 | 0.03 | 71 | 1010.4 |
| 20260505085516 | 51 | 135 | 5.2 | 8.7 | 0.01 | 0.12 | 0.03 | 69 | 1010.9 |
| 20260505084540 | 52 | 68 | 3.5 | 8.7 | 0.01 | 0.12 | 0.03 | 61 | 1011.0 |
| 20260505083518 | 52 | 203 | 6.1 | 9.6 | 0.00 | 0.11 | 0.02 | 64 | 1011.1 |
| 20260505082538 | 53 | 135 | 4.3 | 7.8 | 0.00 | 0.11 | 0.02 | 61 | 1011.5 |
| 20260505081519 | 53 | 135 | 3.5 | 6.1 | 0.00 | 0.11 | 0.02 | 59 | 1010.8 |
| 20260505080518 | 52 | 158 | 5.2 | 8.7 | 0.00 | 0.11 | 0.02 | 61 | 1010.8 |
| 20260505075538 | 52 | 135 | 4.3 | 8.7 | 0.00 | 0.11 | 0.02 | 63 | 1010.9 |
| 20260505074517 | 52 | 135 | 3.5 | 7.0 | 0.00 | 0.11 | 0.02 | 61 | 1010.6 |
| 20260505073521 | 53 | 135 | 6.1 | 13.0 | 0.00 | 0.11 | 0.02 | 59 | 1011.0 |
| 20260505072518 | 51 | 113 | 5.2 | 8.7 | 0.02 | 0.11 | 0.02 | 64 | 1010.7 |
| 20260505071517 | 50 | 113 | 7.8 | 11.3 | 0.02 | 0.11 | 0.02 | 68 | 1010.5 |
| 20260505070517 | 50 | 113 | 6.1 | 7.8 | 0.02 | 0.11 | 0.02 | 72 | 1010.6 |
| 20260505065519 | 52 | 113 | 5.2 | 8.7 | 0.02 | 0.11 | 0.02 | 63 | 1010.8 |
| 20260505064519 | 52 | 0 | 4.3 | 12.2 | 0.02 | 0.11 | 0.02 | 62 | 1010.6 |
| 20260505063517 | 53 | 90 | 7.0 | 17.4 | 0.02 | 0.11 | 0.02 | 59 | 1010.5 |
| 20260505062537 | 51 | 158 | 3.5 | 8.7 | 0.01 | 0.09 | 0.00 | 70 | 1010.3 |
| 20260505061538 | 51 | 225 | 2.6 | 5.2 | 0.02 | 0.09 | 0.00 | 73 | 1010.3 |
| 20260505060518 | 51 | 135 | 5.2 | 10.4 | 0.02 | 0.09 | 0.00 | 73 | 1010.1 |
| 20260505055516 | 51 | 203 | 5.2 | 9.6 | 0.03 | 0.09 | 0.09 | 76 | 1010.3 |
| 20260505054516 | 50 | 203 | 7.0 | 11.3 | 0.04 | 0.09 | 0.09 | 76 | 1010.3 |
| 20260505053516 | 50 | 180 | 6.1 | 11.3 | 0.05 | 0.09 | 0.09 | 76 | 1010.4 |
| 20260505052536 | 51 | 158 | 3.5 | 7.8 | 0.04 | 0.08 | 0.08 | 73 | 1010.4 |
| 20260505051516 | 50 | 203 | 5.2 | 9.6 | 0.04 | 0.07 | 0.07 | 77 | 1010.7 |
| 20260505050516 | 50 | 203 | 8.7 | 13.0 | 0.04 | 0.07 | 0.07 | 79 | 1010.6 |
| 20260505041516 | 53 | 203 | 10.4 | 17.4 | 0.00 | 0.03 | 0.03 | 67 | 1010.5 |
| 20260505040516 | 53 | 203 | 11.3 | 20.0 | 0.00 | 0.03 | 0.03 | 67 | 1010.1 |
| 20260505035542 | 53 | 203 | 13.0 | 25.2 | 0.00 | 0.03 | 0.03 | 66 | 1009.7 |
| 20260505034518 | 55 | 203 | 11.3 | 20.0 | 0.00 | 0.03 | 0.03 | 63 | 1009.4 |
| 20260505033538 | 56 | 203 | 13.0 | 20.0 | 0.00 | 0.03 | 0.03 | 59 | 1009.5 |
| 20260505032520 | 57 | 203 | 10.4 | 16.5 | 0.00 | 0.03 | 0.03 | 55 | 1009.2 |
| 20260505031517 | 56 | 225 | 11.3 | 16.5 | 0.00 | 0.03 | 0.03 | 60 | 1008.8 |
| 20260505030521 | 56 | 225 | 9.6 | 16.5 | 0.00 | 0.03 | 0.03 | 61 | 1008.7 |
| 20260505025518 | 56 | 225 | 7.0 | 11.3 | 0.00 | 0.03 | 0.03 | 58 | 1008.7 |
| 20260505024520 | 57 | 203 | 7.8 | 12.2 | 0.00 | 0.03 | 0.03 | 57 | 1008.9 |
| 20260505023517 | 57 | 225 | 6.1 | 8.7 | 0.00 | 0.03 | 0.03 | 57 | 1008.9 |
| 20260505022520 | 57 | 203 | 6.1 | 12.2 | 0.00 | 0.03 | 0.03 | 56 | 1008.8 |
| 20260505021517 | 58 | 225 | 7.8 | 13.0 | 0.00 | 0.03 | 0.03 | 55 | 1008.6 |
| 20260505020520 | 58 | 180 | 1.7 | 3.5 | 0.00 | 0.03 | 0.03 | 51 | 1008.7 |
| 20260505015517 | 58 | 203 | 6.1 | 8.7 | 0.00 | 0.03 | 0.03 | 53 | 1008.3 |
| 20260505014517 | 58 | 203 | 6.1 | 8.7 | 0.00 | 0.03 | 0.03 | 54 | 1007.7 |
| 20260505013518 | 58 | 203 | 4.3 | 7.8 | 0.00 | 0.03 | 0.03 | 55 | 1007.7 |
| 20260505012522 | 59 | 113 | 0.9 | 2.6 | 0.00 | 0.03 | 0.03 | 56 | 1007.9 |
| 20260505011517 | 58 | 113 | 1.7 | 5.2 | 0.00 | 0.03 | 0.03 | 58 | 1007.8 |
| 20260505010521 | 58 | 90 | 1.7 | 3.5 | 0.00 | 0.03 | 0.03 | 56 | 1007.9 |
| 20260505005517 | 59 | 90 | 2.6 | 5.2 | 0.00 | 0.03 | 0.03 | 54 | 1007.9 |
| 20260505004517 | 59 | 45 | 1.7 | 4.3 | 0.00 | 0.03 | 0.03 | 53 | 1008.2 |
| 20260505003638 | 59 | 68 | 3.5 | 9.6 | 0.00 | 0.03 | 0.03 | 52 | 1008.1 |
| 20260505002517 | 60 | 90 | 1.7 | 5.2 | 0.00 | 0.03 | 0.03 | 54 | 1008.0 |
| 20260505001518 | 60 | 68 | 1.7 | 4.3 | 0.00 | 0.03 | 0.03 | 53 | 1007.9 |
| 20260505000537 | 61 | 23 | 1.7 | 5.2 | 0.00 | 0.03 | 0.03 | 51 | 1008.1 |
| 20260504235517 | 61 | 0 | 4.3 | 9.6 | 0.00 | 0.03 | 0.03 | 49 | 1007.9 |
| 20260504234517 | 61 | 0 | 5.2 | 10.4 | 0.01 | 0.03 | 0.03 | 48 | 1007.8 |
| 20260504233517 | 61 | 315 | 1.7 | 5.2 | 0.03 | 0.03 | 0.03 | 57 | 1008.0 |
| 20260504232517 | 61 | 90 | 1.7 | 3.5 | 0.03 | 0.03 | 0.03 | 55 | 1007.6 |
| 20260504231517 | 61 | 203 | 1.7 | 5.2 | 0.03 | 0.03 | 0.03 | 49 | 1007.8 |
| 20260504230517 | 60 | 113 | 8.7 | 13.9 | 0.03 | 0.03 | 0.03 | 51 | 1007.3 |
| 20260504225517 | 58 | 135 | 7.0 | 10.4 | 0.03 | 0.03 | 0.03 | 60 | 1007.0 |
| 20260504224517 | 60 | 135 | 10.4 | 16.5 | 0.02 | 0.02 | 0.02 | 50 | 1007.3 |
| 20260504223517 | 64 | 135 | 5.2 | 8.7 | 0.00 | 0.00 | 0.00 | 41 | 1007.9 |
| 20260504222517 | 64 | 113 | 11.3 | 20.0 | 0.00 | 0.00 | 0.00 | 37 | 1007.6 |
| 20260504221520 | 65 | 90 | 10.4 | 20.0 | 0.00 | 0.00 | 0.00 | 36 | 1007.9 |
| 20260504220517 | 67 | 68 | 9.6 | 16.5 | 0.00 | 0.00 | 0.00 | 35 | 1008.4 |
| 20260504215517 | 68 | 270 | 1.7 | 6.1 | 0.00 | 0.00 | 0.00 | 30 | 1008.8 |
| 20260504214517 | 68 | 270 | 2.6 | 7.0 | 0.00 | 0.00 | 0.00 | 29 | 1008.8 |
| 20260504213518 | 67 | 203 | 7.0 | 11.3 | 0.00 | 0.00 | 0.00 | 31 | 1009.1 |
| 20260504212517 | 67 | 68 | 1.7 | 6.1 | 0.00 | 0.00 | 0.00 | 31 | 1009.5 |
| 20260504211521 | 66 | 68 | 3.5 | 7.0 | 0.00 | 0.00 | 0.00 | 33 | 1009.4 |
| 20260504210517 | 67 | 45 | 3.5 | 7.8 | 0.00 | 0.00 | 0.00 | 32 | 1009.7 |
| 20260504205617 | 68 | 23 | 4.3 | 8.7 | 0.00 | 0.00 | 0.00 | 32 | 1009.7 |
| 20260504204517 | 68 | 68 | 1.7 | 4.3 | 0.00 | 0.00 | 0.00 | 30 | 1010.2 |
| 20260504203517 | 68 | 338 | 4.3 | 11.3 | 0.00 | 0.00 | 0.00 | 33 | 1010.3 |
| 20260504202517 | 67 | 45 | 3.5 | 8.7 | 0.00 | 0.00 | 0.00 | 35 | 1010.0 |
| 20260504201517 | 67 | 293 | 1.7 | 3.5 | 0.00 | 0.00 | 0.00 | 33 | 1010.0 |
| 20260504200516 | 65 | 113 | 2.6 | 7.8 | 0.00 | 0.00 | 0.00 | 31 | 1009.7 |
| 20260504195516 | 64 | 68 | 3.5 | 9.6 | 0.00 | 0.00 | 0.00 | 33 | 1009.7 |
| 20260504194519 | 64 | 203 | 5.2 | 9.6 | 0.00 | 0.00 | 0.00 | 35 | 1009.9 |
| 20260504193517 | 63 | 203 | 5.2 | 8.7 | 0.00 | 0.00 | 0.00 | 37 | 1010.1 |
| 20260504192517 | 63 | 203 | 7.8 | 10.4 | 0.00 | 0.00 | 0.00 | 38 | 1010.1 |
| 20260504191519 | 63 | 225 | 4.3 | 9.6 | 0.00 | 0.00 | 0.00 | 46 | 1010.4 |
| 20260504190516 | 63 | 180 | 4.3 | 7.0 | 0.00 | 0.00 | 0.00 | 38 | 1010.3 |
| 20260504185517 | 62 | 203 | 7.0 | 11.3 | 0.00 | 0.00 | 0.00 | 35 | 1010.0 |
| 20260504184519 | 60 | 203 | 7.8 | 10.4 | 0.00 | 0.00 | 0.00 | 47 | 1010.2 |
| 20260504183519 | 59 | 203 | 7.0 | 13.0 | 0.00 | 0.00 | 0.00 | 52 | 1010.2 |
| 20260504182516 | 60 | 225 | 4.3 | 9.6 | 0.00 | 0.00 | 0.00 | 53 | 1010.6 |
| 20260504181516 | 60 | 203 | 5.2 | 8.7 | 0.00 | 0.00 | 0.00 | 46 | 1010.6 |
| 20260504180518 | 60 | 225 | 4.3 | 8.7 | 0.00 | 0.00 | 0.00 | 45 | 1010.7 |
| 20260504175517 | 60 | 180 | 2.6 | 7.0 | 0.00 | 0.00 | 0.00 | 44 | 1010.6 |
| 20260504174517 | 60 | 180 | 3.5 | 6.1 | 0.00 | 0.00 | 0.00 | 44 | 1010.4 |
| 20260504173516 | 60 | 180 | 5.2 | 9.6 | 0.00 | 0.00 | 0.00 | 42 | 1010.4 |
| 20260504172536 | 61 | 180 | 5.2 | 8.7 | 0.00 | 0.00 | 0.00 | 43 | 1010.7 |
| 20260504171516 | 61 | 203 | 3.5 | 8.7 | 0.00 | 0.00 | 0.00 | 42 | 1010.9 |
| 20260504170517 | 62 | 45 | 1.7 | 3.5 | 0.00 | 0.00 | 0.00 | 40 | 1010.9 |
| 20260504150520 | 58 | 23 | 2.6 | 4.3 | 0.00 | 0.00 | 0.00 | 46 | 1011.6 |
| 20260504140516 | 59 | 270 | 0.9 | 3.5 | 0.00 | 0.00 | 0.00 | 46 | 1012.5 |
| 20260504130516 | 54 | 135 | 2.6 | 5.2 | 0.00 | 0.00 | 0.00 | 47 | 1012.3 |
| 20260504110518 | 55 | 68 | 2.6 | 4.3 | 0.00 | 0.00 | 0.00 | 45 | 1013.0 |
| 20260504100515 | 55 | 158 | 2.6 | 5.2 | 0.00 | 0.00 | 0.00 | 41 | 1012.7 |